This is the latest recevied weather packets stored in our database for station/object WB8ZGM-13. If no packets are shown the sender has not sent any weather packets the latest 10 day(s).
| Time | Temp. | Humidity | Pressure | Rain* | Wind** | Luminosity | Snow |
|---|---|---|---|---|---|---|---|
| 1777930218 | 27.78° C | 45% | 992.7 hPa | 0 mm | - | - | - |
| 1777929288 | 28.33° C | 44% | 992.7 hPa | 0 mm | - | - | - |
| 1777928388 | 27.22° C | 43% | 993 hPa | 0 mm | - | - | - |
| 1777927488 | 28.33° C | 42% | 992.9 hPa | 0 mm | - | - | - |
| 1777926587 | 28.89° C | 42% | 993.1 hPa | 0 mm | - | - | - |
| 1777925687 | 28.33° C | 43% | 993.3 hPa | 0 mm | - | - | - |
| 1777924787 | 28.33° C | 41% | 993.3 hPa | 0 mm | - | - | - |
| 1777923857 | 28.89° C | 44% | 993.6 hPa | 0 mm | - | - | - |
| 1777922957 | 28.89° C | 44% | 993.8 hPa | 0 mm | - | - | - |
| 1777922057 | 28.89° C | 43% | 994.2 hPa | 0 mm | - | - | - |
| 1777921157 | 28.33° C | 44% | 994.3 hPa | 0 mm | - | - | - |
| 1777920257 | 28.33° C | 45% | 994.6 hPa | 0 mm | - | - | - |
| 1777919357 | 28.89° C | 47% | 994.5 hPa | 0 mm | - | - | - |
| 1777918427 | 27.78° C | 47% | 994.7 hPa | 0 mm | - | - | - |
| 1777917497 | 28.89° C | 46% | 994.8 hPa | 0 mm | - | - | - |
| 1777916567 | 27.78° C | 49% | 994.9 hPa | 0 mm | - | - | - |
| 1777915637 | 27.78° C | 48% | 995.2 hPa | 0 mm | - | - | - |
| 1777914707 | 27.22° C | 49% | 995.4 hPa | 0 mm | - | - | - |
| 1777913777 | 27.22° C | 51% | 995.6 hPa | 0 mm | - | - | - |
| 1777912847 | 26.67° C | 50% | 995.8 hPa | 0 mm | - | - | - |
| 1777911917 | 26.11° C | 51% | 996.1 hPa | 0 mm | - | - | - |
| 1777910987 | 26.11° C | 52% | 996.3 hPa | 0 mm | - | - | - |
| 1777910057 | 24.44° C | 54% | 996.4 hPa | 0 mm | - | - | - |
| 1777909127 | 24.44° C | 55% | 996.6 hPa | 0 mm | - | - | - |
| 1777908197 | 23.89° C | 56% | 996.4 hPa | 0 mm | - | - | - |
* Rain latest hour (hover to see other rain measurements)
** Current wind speed in m/s (hover to see current wind gust speed)